Wind_Speed
4 4 5 8 6 4 2 3 5 5 3 2 8 6 8 9 5 9 8 8 10 10 13 22 22 12 17 24 31 31 31 31 30 31 28 24 24 19 16 16 16 13 17 19
5 5 7 4 3 4 4 3 6 9 6 6 7 8 9 6 5 6 8 8 10 7 8 9 13 15 25 30 34 34 34 34 32 29 24 22 27 22 18 10 7 9 9 12
6 5 4 3 3 3 5 4 6 8 6 2 3 6 5 5 5 7 4 5 6 8 9 10 9 16 22 29 34 37 38 36 30 22 20 19 15 9 6 1 3 6 8 9
5 6 4 4 6 7 7 8 14 8 2 4 2 5 5 5 8 5 9 9 9 9 9 11 9 12 26 28 30 33 31 26 23 19 16 14 7 5 6 4 4 7 9 10
5 2 4 3 6 6 8 4 8 7 5 3 2 2 7 4 7 7 9 10 10 10 9 9 9 14 18 22 23 23 25 22 18 14 11 10 10 8 6 4 4 6 7 9
5 2 2 4 1 2 3 3 8 5 3 0 4 4 4 3 3 6 6 8 9 4 7 9 12 12 16 23 23 23 22 19 16 14 12 10 9 7 5 3 2 5 7 9
3 3 3 2 3 6 6 6 2 3 2 5 1 1 8 3 4 3 4 9 9 8 9 11 11 9 15 16 20 20 18 16 13 9 7 5 4 5 5 5 4 2 3 6
4 2 1 2 4 4 2 6 5 6 4 3 4 4 3 4 5 6 11 7 9 10 8 8 7 10 12 12 12 11 10 11 9 8 7 5 6 7 5 6 6 4 2 4
4 2 1 6 1 3 2 3 3 5 2 3 4 6 1 5 8 8 8 9 9 9 9 9 8 6 8 6 4 3 3 4 7 9 11 13 15 16 15 11 9 8 7 7
2 2 2 2 2 6 4 5 3 3 4 4 4 4 5 2 5 7 8 6 7 7 6 7 7 9 6 5 5 4 6 10 12 15 19 21 19 17 15 14 14 14 11 11
3 3 3 1 3 2 5 3 5 3 3 5 1 5 3 5 2 5 6 7 8 8 10 4 4 1 4 6 9 13 14 13 14 16 18 20 20 19 18 20 21 21 19 19
2 4 0 3 6 4 2 3 3 4 4 1 1 5 4 5 4 3 8 8 7 8 9 6 3 3 5 10 10 14 12 12 11 11 12 15 18 18 20 22 24 23 24 23
4 2 2 6 5 5 6 2 4 4 3 5 4 4 6 9 14 9 12 11 7 4 3 4 6 6 9 11 12 14 16 16 15 16 16 15 15 15 17 19 21 22 22 23
6 3 5 5 3 3 3 3 4 5 3 4 6 7 8 11 16 16 14 5 6 7 5 3 4 4 7 10 14 18 21 22 22 21 22 22 23 23 23 24 25 25 25 27
4 3 3 4 4 3 5 10 6 8 7 8 3 13 11 7 8 6 5 5 5 5 3 2 3 5 8 11 17 21 23 25 24 24 24 26 28 30 31 31 30 29 27 27
4 2 2 3 5 5 7 10 9 11 12 13 10 15 5 0 5 4 5 5 6 7 7 7 7 7 10 16 20 24 28 31 28 25 30 32 31 31 32 32 31 32 31 31
3 5 3 4 3 6 7 6 7 5 6 5 6 7 0 2 5 3 1 4 5 7 7 7 7 7 15 21 23 27 31 29 26 25 26 26 25 26 27 29 30 29 31 32
6 6 3 2 2 3 5 4 5 4 1 1 2 1 2 2 4 5 6 2 5 6 7 8 8 15 22 26 26 25 23 25 29 28 28 29 29 30 31 32 32 33 32 33
5 5 2 3 3 6 5 0 1 1 4 5 3 4 5 5 6 5 3 3 5 6 7 14 22 24 25 26 25 30 27 30 31 30 30 31 29 33 35 31 28 35 35 34
4 3 4 3 3 5 4 2 2 1 5 5 3 4 4 3 4 4 5 6 8 14 19 19 21 23 25 28 28 30 31 29 27 29 30 26 33 30 23 29 31 23 28 26
3 1 7 5 4 5 4 3 1 3 5 3 2 5 5 4 5 4 7 8 11 15 16 20 23 20 24 31 29 26 29 27 29 33 33 28 30 32 30 29 30 33 29 30
5 5 3 2 3 7 6 5 2 4 3 4 4 6 6 7 7 7 8 8 8 8 16 20 17 22 27 28 26 27 25 29 34 31 29 31 30 28 28 27 28 27 28 26
1 5 4 7 5 2 3 5 7 4 4 4 4 6 6 5 6 8 7 8 7 12 15 21 21 27 29 27 25 24 32 32 32 31 31 29 29 28 27 27 27 24 25 23
2 3 3 1 4 7 8 7 5 5 7 6 5 4 2 6 7 8 7 8 6 12 15 22 23 24 26 26 25 29 31 31 30 30 30 28 27 27 27 25 24 22 20 18
5 2 2 4 6 5 6 5 6 8 6 6 3 2 4 6 8 7 8 7 8 15 21 24 23 24 28 29 29 29 29 28 28 28 29 29 28 26 26 25 25 22 21 22
4 6 4 5 8 5 7 6 6 6 5 3 2 6 6 5 8 7 6 9 13 17 24 23 25 28 29 30 30 30 28 26 26 28 26 25 25 24 23 22 23 24 28 27
Wind_Direction
170 121 198 213 191 174 184 189 251 262 247 277 258 248 279 292 335 290 251 246 257 258 261 247 234 215 198 199 204 204 202 207 202 208 216 228 228 231 247 249 258 276 277 284
42 225 223 210 177 192 217 251 270 290 262 157 273 258 259 277 283 250 238 253 246 245 257 261 232 210 200 195 197 200 205 206 206 210 222 218 224 233 235 247 280 289 299 290
154 241 147 179 263 251 246 200 251 223 304 242 301 309 295 295 306 335 311 259 265 251 272 285 262 214 202 197 199 200 202 203 203 208 212 204 193 195 180 176 351 339 332 329
206 274 201 184 240 172 260 211 232 235 178 245 88 276 298 299 316 307 305 305 282 261 248 249 253 197 207 205 200 202 198 192 195 193 190 190 172 128 108 70 10 358 353 346
228 102 100 178 219 168 230 303 206 206 185 127 318 79 268 285 307 315 309 309 308 305 290 278 228 211 195 183 180 182 188 188 196 189 180 146 116 101 86 59 357 352 1 0
217 250 185 214 302 29 294 88 36 49 87 208 230 156 272 261 262 300 322 353 339 20 52 48 49 96 130 154 153 157 154 144 143 145 143 137 132 141 149 161 262 316 328 339
317 237 267 199 158 356 69 58 344 326 337 220 196 79 242 320 329 276 22 4 360 344 70 80 76 69 90 105 118 129 137 143 153 159 163 166 179 188 182 187 185 251 336 352
169 157 167 356 128 169 100 145 161 205 208 257 292 237 240 55 6 41 63 40 27 20 14 38 71 106 121 126 130 140 156 165 181 198 212 233 269 274 259 208 196 201 271 326
168 128 25 40 71 151 176 78 173 104 30 55 263 299 25 42 43 45 42 39 28 16 10 27 19 77 131 140 152 179 209 246 248 257 262 263 264 260 254 245 247 255 264 288
175 122 40 329 11 36 91 161 74 14 174 233 287 271 236 61 29 31 16 27 357 343 0 31 21 360 8 128 147 207 242 253 258 253 254 253 248 244 245 248 254 257 263 272
106 111 270 23 61 96 357 16 51 113 137 178 214 251 250 124 82 15 338 340 327 330 303 334 287 220 305 331 336 322 308 288 290 289 274 254 251 252 251 252 255 257 253 254
9 117 151 258 310 235 162 135 112 126 238 212 166 263 173 159 244 303 315 288 276 277 262 282 337 264 97 84 57 42 23 18 5 339 312 290 283 279 275 264 258 254 250 249
173 50 38 353 355 16 75 62 92 101 89 205 176 251 195 311 318 315 305 275 276 262 311 49 61 47 30 24 8 351 339 339 335 332 333 328 321 313 304 298 293 286 280 269
94 104 153 195 198 170 261 253 199 158 174 226 219 268 294 287 290 300 292 335 26 67 60 43 4 355 340 332 330 328 326 323 316 308 301 296 294 293 293 295 295 293 291 282
96 129 168 240 241 219 242 272 272 205 215 223 237 263 268 245 258 303 357 71 47 40 21 298 274 287 298 313 328 324 320 319 305 293 292 291 294 293 290 288 287 285 283 281
8 147 109 280 276 287 281 273 262 265 266 260 261 271 227 66 88 61 38 18 1 339 333 334 336 336 328 324 319 314 315 315 312 295 289 292 293 290 285 282 280 281 279 275
115 127 101 275 355 338 304 248 228 231 227 214 227 239 242 326 13 349 326 322 322 324 327 326 307 290 296 307 316 315 312 310 305 301 302 299 295 291 287 284 280 274 273 271
137 131 139 222 34 239 249 284 263 225 179 239 236 156 281 292 279 266 216 265 310 292 286 289 292 297 307 314 310 305 302 301 300 295 292 290 288 285 284 279 275 274 274 271
150 142 165 173 198 299 302 163 115 114 280 204 216 246 272 304 334 301 202 223 250 269 282 288 298 305 309 306 300 304 301 302 296 292 294 293 291 293 285 280 282 284 275 270
116 103 128 156 210 241 245 263 191 119 272 195 214 273 253 349 311 265 285 322 294 283 284 286 301 301 299 302 307 301 298 296 291 293 294 290 297 286 289 291 287 283 289 292
107 70 206 208 244 275 248 284 110 123 249 224 221 264 278 234 216 239 287 278 266 272 286 302 300 300 305 304 300 294 296 292 297 299 294 288 290 284 280 281 276 277 273 269
167 175 197 211 245 251 12 328 217 238 265 249 262 258 260 254 273 274 272 273 281 284 299 306 306 302 303 304 303 296 294 302 301 296 292 293 289 286 282 279 277 275 276 268
225 182 183 183 220 213 225 226 272 244 239 268 255 271 259 274 272 289 286 296 284 291 300 308 302 302 305 307 302 299 299 302 301 296 293 292 290 284 281 277 273 269 270 269
294 177 221 130 260 228 256 249 242 255 250 270 279 267 277 279 286 287 292 292 294 307 302 306 304 304 304 307 307 306 301 301 300 296 294 290 287 279 274 268 267 264 262 254
214 0 218 258 275 260 274 243 258 277 286 309 318 332 301 294 291 285 291 299 301 301 308 311 308 304 305 309 307 304 302 302 297 295 292 288 283 279 276 268 263 259 254 252
195 206 172 241 233 219 243 252 263 285 296 40 356 315 302 288 288 286 291 291 297 304 311 312 311 310 308 311 308 306 306 303 297 297 295 291 289 285 280 274 276 259 258 257
Height
748 762 772 764 764 763 765 773 775 764 755 756 763 761 749 739 733 736 733 731 731 728 717 715 716 719 721 724 728 731 733 737 742 747 750 752 754 758 762 764 765 767 768 769
758 766 755 754 759 762 768 773 776 763 752 761 759 759 751 738 733 734 729 729 729 724 718 714 714 716 717 718 722 726 730 733 737 741 744 747 749 753 755 758 760 762 762 761
765 753 746 754 758 764 766 772 772 771 753 752 754 766 751 738 731 727 723 724 726 725 724 718 713 713 714 715 719 721 724 729 734 737 740 742 744 748 752 755 757 759 759 760
759 747 750 755 761 762 774 756 754 760 766 784 758 793 767 749 745 734 729 726 722 719 716 714 710 709 711 712 715 721 725 730 735 737 739 741 742 747 751 754 757 758 758 758
757 748 750 754 754 749 760 743 752 755 767 771 770 788 774 753 746 741 734 727 721 717 714 709 708 705 709 712 715 721 727 731 736 737 740 743 744 747 750 753 754 755 756 756
748 737 740 745 739 740 740 746 763 773 781 792 772 779 784 759 746 742 732 731 729 721 716 713 711 712 713 713 715 723 729 734 739 741 742 742 743 745 748 750 750 751 751 751
751 746 738 735 748 749 752 770 794 795 798 796 769 782 775 747 742 740 737 738 734 729 718 716 718 721 725 727 725 729 731 735 739 739 740 740 741 742 744 747 747 748 748 748
769 770 748 739 748 757 756 770 795 795 802 790 776 779 764 749 746 744 742 744 740 737 734 729 726 724 729 732 733 734 736 736 737 738 738 738 738 738 740 742 744 744 744 743
764 761 745 745 742 747 758 776 770 788 794 799 787 769 750 749 749 748 748 746 747 746 742 738 736 734 732 734 736 737 738 739 738 737 736 736 736 737 738 740 740 739 738 738
755 766 758 751 744 750 756 761 779 794 799 804 794 779 773 757 758 753 752 749 747 744 743 743 742 742 740 737 737 738 738 737 736 734 734 734 734 735 734 735 735 735 733 732
756 765 766 757 765 770 774 776 779 787 795 805 801 786 759 763 758 757 754 748 745 743 741 738 741 741 743 742 742 741 740 737 735 733 731 730 730 730 729 729 729 728 727 727
760 773 778 770 766 764 764 773 783 807 793 789 788 785 756 758 755 753 754 749 746 744 741 739 739 741 738 737 741 738 738 733 731 731 730 729 727 726 725 724 723 723 722 721
759 781 790 781 777 772 776 775 782 791 798 794 803 783 759 755 751 750 749 744 741 739 738 738 740 739 737 736 737 737 737 733 731 730 729 726 725 724 723 721 721 720 719 717
758 780 782 792 779 786 783 780 778 786 801 798 783 775 768 762 756 750 745 744 742 741 743 742 741 740 739 739 738 737 734 732 730 728 725 724 722 720 719 717 716 715 713 711
766 779 778 779 779 777 777 775 775 784 782 785 768 767 760 760 757 753 746 746 746 745 743 743 743 741 740 738 736 735 732 730 727 723 720 717 716 714 711 709 708 707 705 703
776 783 778 779 774 775 775 770 769 768 766 763 763 760 751 747 751 753 752 750 748 747 744 742 740 737 736 734 732 730 725 723 721 717 715 712 708 705 702 699 697 696 695 695
776 787 795 786 778 778 779 765 762 758 755 756 763 756 751 751 749 750 750 750 747 747 745 744 742 739 735 732 727 722 721 719 716 713 708 705 702 698 695 692 689 686 683 683
783 788 799 791 786 789 760 751 749 751 753 754 752 751 751 750 749 749 747 747 748 748 745 741 737 733 729 726 722 721 719 714 709 704 700 697 694 690 687 683 680 676 674 672
769 782 783 797 807 775 756 753 753 753 754 753 752 750 749 748 749 746 744 745 745 744 741 737 734 730 725 722 719 716 710 706 701 696 693 690 687 682 678 673 670 668 664 658
770 768 778 790 787 780 761 752 751 753 765 749 749 749 747 752 760 755 744 743 742 739 737 733 730 726 721 717 714 709 703 698 694 690 685 682 679 673 668 666 662 658 655 651
784 784 776 776 776 771 757 751 751 769 767 748 748 748 749 752 752 745 743 741 738 734 731 728 724 720 716 711 706 700 695 691 687 682 677 672 669 665 660 657 654 651 646 643
772 770 773 775 770 766 757 754 757 758 750 749 749 748 748 747 745 743 740 737 733 729 725 722 719 714 710 705 701 693 687 684 679 673 668 663 659 655 651 648 644 643 639 635
775 772 782 779 773 760 757 758 755 754 751 747 745 744 743 744 743 740 737 733 728 725 721 718 714 707 701 698 694 687 680 676 671 665 659 654 649 646 642 639 636 634 632 629
761 763 766 764 757 756 751 748 748 748 746 742 742 741 741 743 741 737 733 729 725 722 718 713 708 701 694 691 687 683 675 670 663 656 651 646 641 634 633 629 626 624 623 621
770 764 764 765 757 753 749 747 746 743 741 742 741 741 742 741 737 734 730 726 723 718 713 708 703 696 689 685 679 674 668 663 656 648 643 637 632 627 623 620 617 615 614 614
765 763 773 768 753 751 749 742 741 743 742 742 743 741 739 737 735 730 727 724 720 714 708 702 697 691 684 679 672 666 662 656 650 642 635 629 625 619 615 611 607 605 605 606